[ hide orbit diagram ]
For accurate long-term ephemerides, please instead use our Horizons system.This orbit viewer was implemented using two-body methods, and hence should not be used for determining accurate long-term trajectories (over several years or decades) or planetary encounter circumstances.
Orbital Elements at Epoch 2459200.5 (2020-Dec-17.0) TDB
Reference: JPL 28 (heliocentric ecliptic J2000)
Element | Value | Uncertainty (1-sigma) | Units |
e | .1277039069620498 | 3.8235e-08 | |
a | 3.14054921083468 | 1.8727e-08 | au |
q | 2.73948880660451 | 1.2156e-07 | au |
i | 13.66782747047973 | 4.3944e-06 | deg |
node | 23.98821512853206 | 1.5089e-05 | deg |
peri | 351.2345629809666 | 2.1048e-05 | deg |
M | 229.3613303920149 | 1.6663e-05 | deg |
tp | 2459938.193708524913 (2022-Dec-24.69370853) | 9.7778e-05 | TDB |
period | 2032.857008310624 5.57 | 1.8183e-05 4.978e-08 | d yr |
n | .1770906652697489 | 1.584e-09 | deg/d |
Q | 3.541609615064851 | 2.1118e-08 | au |
|
| | Orbit Determination Parameters
Additional Information
|
[ show covariance matrix ]
Physical Parameter Table
Parameter |
Symbol |
Value |
Units |
Sigma |
Reference |
Notes |
absolute magnitude |
H |
13.08 |
|
n/a |
E2020-QM5 |
|
diameter |
diameter |
13.492 |
km |
0.153 |
urn:nasa:pds:neowise_diameters_albedos::2.0[mainbelt] (http://adsabs.harvard.edu/abs/2011ApJ...741...68M) |
|
geometric albedo |
albedo |
0.081 |
|
0.018 |
urn:nasa:pds:neowise_diameters_albedos::2.0[mainbelt] (http://adsabs.harvard.edu/abs/2011ApJ...741...68M) |
|
|
16458 (1989 WZ2) Discovered 1989-Nov-21 by Oshima, Y. at Gekko |
Reference: 20000913/Numbers.arc | Last Updated: 2004-04-19 |
|
[ hide close-approach data ]
Close-Approach Data ...sorted by Date/Time (TDB)
|
Date/Time (TDB) |
Time Uncertainty (days_HH:MM) |
Body |
Nominal Distance (au) |
Minimum Distance (au) |
Maximum Distance (au) |
V-relative (km/s) |
V-infinity (km/s) |
JD (TDB) |
Time Uncertainty (minutes) |
Semi-major axis (km) |
Semi-minor axis (km) |
range-LOV angle (deg) |
N-sigma |
BP |
Orbit Ref. |
Reference |
Modified |
1970-Jan-25 02:47 |
00:01 |
Jupiter |
1.95713456697767 |
1.95713415144881 |
1.95713498250854 |
4.1058512370371 |
3.99905492086878 |
2440611.615632225 |
1.22221127781407 |
191.433384496047 |
14.766056386654 |
86.1646695716687 |
4055797.97548709 |
T |
28 |
CATAB v2.0f-lin.ifort 2020-Nov-13 02:27:15 |
2020-Nov-13 02:27 |
2065-Feb-09 12:54 |
00:01 |
Jupiter |
1.96633784693029 |
1.96633747224535 |
1.96633822161691 |
4.08019266795254 |
3.97321649729646 |
2475326.037545225 |
1.3146093480229 |
173.227106843755 |
12.9169461269765 |
86.0628772722124 |
4146559.6000562 |
T |
28 |
CATAB v2.0f-lin.ifort 2020-Nov-13 02:27:15 |
2020-Nov-13 02:27 |
2160-Feb-28 20:12 |
00:04 |
Jupiter |
1.97361974404487 |
1.9736190925594 |
1.97362039553853 |
4.01895751444008 |
3.91071289120158 |
2510042.341649069 |
3.87296142401736 |
244.429005862766 |
15.0940795550836 |
82.8356992928202 |
4044608.84786428 |
T |
28 |
CATAB v2.0f-lin.ifort 2020-Nov-13 02:27:15 |
2020-Nov-13 02:27 |
2170-Oct-20 20:07 |
00:04 |
Jupiter |
1.9876260752873 |
1.98762511816243 |
1.9876270324524 |
4.06363658427501 |
3.95737876026892 |
2513929.338031662 |
4.19199253830709 |
513.551642231697 |
20.7082011761676 |
85.0693191657903 |
3955253.73087434 |
T |
28 |
CATAB v2.0f-lin.ifort 2020-Nov-13 02:27:15 |
2020-Nov-13 02:27 |
|
|